| time (UTC) | temp C | wind direction | speed KPH | gust KPH | rain 1hr cm | rain 24hr cm | rain mn cm | humidity % | barometer mb |
| 20260906234257 | 26 | 182 | 1.6 | 0.0 | 0.00 | 0.00 | 0.00 | 31 | 1012.8 |
| 20260906233751 | 26 | 169 | 3.2 | 0.0 | 0.00 | 0.00 | 0.00 | 28 | 1012.7 |
| 20260906233245 | 26 | 179 | 1.6 | 0.0 | 0.00 | 0.00 | 0.00 | 28 | 1012.7 |
| 20260906232739 | 26 | 184 | 4.8 | 0.0 | 0.00 | 0.00 | 0.00 | 26 | 1012.8 |
| 20260906232233 | 26 | 195 | 1.6 | 0.0 | 0.00 | 0.00 | 0.00 | 30 | 1012.9 |
| 20260906231727 | 26 | 198 | 3.2 | 0.0 | 0.00 | 0.00 | 0.00 | 28 | 1012.9 |
| 20260906231221 | 26 | 212 | 3.2 | 0.0 | 0.00 | 0.00 | 0.00 | 26 | 1013.0 |
| 20260906230715 | 26 | 197 | 3.2 | 0.0 | 0.00 | 0.00 | 0.00 | 27 | 1013.1 |
| 20260906230209 | 26 | 198 | 6.4 | 0.0 | 0.00 | 0.00 | 0.00 | 25 | 1013.0 |
| 20260906225703 | 26 | 207 | 1.6 | 0.0 | 0.00 | 0.00 | 0.00 | 27 | 1013.1 |
| 20260906225157 | 26 | 224 | 4.8 | 0.0 | 0.00 | 0.00 | 0.00 | 26 | 1013.1 |
| 20260906224651 | 26 | 214 | 6.4 | 0.0 | 0.00 | 0.00 | 0.00 | 26 | 1013.2 |
| 20260906224145 | 26 | 211 | 8.0 | 17.7 | 0.00 | 0.00 | 0.00 | 26 | 1013.1 |
| 20260906223639 | 26 | 210 | 4.8 | 17.7 | 0.00 | 0.00 | 0.00 | 27 | 1013.2 |
| 20260906223133 | 26 | 220 | 8.0 | 17.7 | 0.00 | 0.00 | 0.00 | 25 | 1013.1 |
| 20260906222627 | 26 | 212 | 6.4 | 0.0 | 0.00 | 0.00 | 0.00 | 26 | 1013.1 |
| 20260906222121 | 26 | 218 | 6.4 | 22.5 | 0.00 | 0.00 | 0.00 | 25 | 1013.1 |
| 20260906221615 | 27 | 215 | 9.7 | 22.5 | 0.00 | 0.00 | 0.00 | 25 | 1013.2 |
| 20260906221109 | 27 | 210 | 6.4 | 20.9 | 0.00 | 0.00 | 0.00 | 26 | 1013.2 |
| 20260906220603 | 27 | 203 | 8.0 | 20.9 | 0.00 | 0.00 | 0.00 | 25 | 1013.3 |
| 20260906220057 | 27 | 209 | 9.7 | 20.9 | 0.00 | 0.00 | 0.00 | 24 | 1013.1 |
| 20260906215551 | 27 | 205 | 11.3 | 20.9 | 0.00 | 0.00 | 0.00 | 24 | 1013.2 |
| 20260906215045 | 27 | 211 | 8.0 | 22.5 | 0.00 | 0.00 | 0.00 | 25 | 1013.2 |
| 20260906214539 | 27 | 218 | 9.7 | 22.5 | 0.00 | 0.00 | 0.00 | 25 | 1013.1 |
| 20260906214033 | 28 | 225 | 6.4 | 22.5 | 0.00 | 0.00 | 0.00 | 25 | 1013.0 |
| 20260906213527 | 28 | 228 | 8.0 | 22.5 | 0.00 | 0.00 | 0.00 | 24 | 1013.1 |
| 20260906213021 | 27 | 222 | 9.7 | 22.5 | 0.00 | 0.00 | 0.00 | 24 | 1013.2 |
| 20260906212515 | 27 | 209 | 9.7 | 22.5 | 0.00 | 0.00 | 0.00 | 26 | 1013.3 |
| 20260906212009 | 27 | 212 | 12.9 | 20.9 | 0.00 | 0.00 | 0.00 | 25 | 1013.3 |
| 20260906211503 | 27 | 217 | 8.0 | 22.5 | 0.00 | 0.00 | 0.00 | 25 | 1013.3 |
| 20260906210957 | 27 | 218 | 8.0 | 22.5 | 0.00 | 0.00 | 0.00 | 25 | 1013.3 |
| 20260906210451 | 27 | 219 | 9.7 | 22.5 | 0.00 | 0.00 | 0.00 | 24 | 1013.3 |
| 20260906205945 | 27 | 191 | 8.0 | 24.1 | 0.00 | 0.00 | 0.00 | 23 | 1013.3 |
| 20260906205439 | 27 | 183 | 14.5 | 22.5 | 0.00 | 0.00 | 0.00 | 24 | 1013.3 |
| 20260906204933 | 27 | 185 | 8.0 | 24.1 | 0.00 | 0.00 | 0.00 | 24 | 1013.4 |
| 20260906204427 | 27 | 202 | 14.5 | 24.1 | 0.00 | 0.00 | 0.00 | 23 | 1013.6 |
| 20260906203921 | 27 | 190 | 12.9 | 24.1 | 0.00 | 0.00 | 0.00 | 24 | 1013.6 |
| 20260906203415 | 27 | 183 | 12.9 | 24.1 | 0.00 | 0.00 | 0.00 | 25 | 1013.6 |
| 20260906202909 | 26 | 191 | 8.0 | 24.1 | 0.00 | 0.00 | 0.00 | 24 | 1013.7 |
| 20260906202403 | 27 | 211 | 12.9 | 24.1 | 0.00 | 0.00 | 0.00 | 22 | 1013.7 |
| 20260906201857 | 27 | 220 | 11.3 | 19.3 | 0.00 | 0.00 | 0.00 | 21 | 1013.8 |
| 20260906201351 | 27 | 215 | 9.7 | 0.0 | 0.00 | 0.00 | 0.00 | 21 | 1013.9 |
| 20260906200845 | 27 | 185 | 9.7 | 17.7 | 0.00 | 0.00 | 0.00 | 22 | 1014.1 |
| 20260906200339 | 26 | 207 | 8.0 | 17.7 | 0.00 | 0.00 | 0.00 | 23 | 1014.2 |
| 20260906195833 | 26 | 224 | 8.0 | 19.3 | 0.00 | 0.00 | 0.00 | 22 | 1014.2 |
| 20260906195327 | 26 | 212 | 9.7 | 19.3 | 0.00 | 0.00 | 0.00 | 24 | 1014.3 |
| 20260906194821 | 26 | 207 | 9.7 | 17.7 | 0.00 | 0.00 | 0.00 | 22 | 1014.5 |
| 20260906194315 | 26 | 224 | 4.8 | 27.4 | 0.00 | 0.00 | 0.00 | 24 | 1014.6 |
| 20260906193809 | 26 | 210 | 9.7 | 27.4 | 0.00 | 0.00 | 0.00 | 23 | 1014.6 |
| 20260906193303 | 26 | 221 | 9.7 | 22.5 | 0.00 | 0.00 | 0.00 | 23 | 1014.3 |
| 20260906192757 | 26 | 203 | 8.0 | 24.1 | 0.00 | 0.00 | 0.00 | 23 | 1014.3 |
| 20260906192251 | 26 | 213 | 14.5 | 24.1 | 0.00 | 0.00 | 0.00 | 22 | 1014.3 |
| 20260906191745 | 26 | 217 | 12.9 | 24.1 | 0.00 | 0.00 | 0.00 | 21 | 1014.2 |
| 20260906191239 | 27 | 223 | 9.7 | 24.1 | 0.00 | 0.00 | 0.00 | 22 | 1014.2 |
| 20260906190733 | 27 | 224 | 8.0 | 25.7 | 0.00 | 0.00 | 0.00 | 23 | 1014.3 |
| 20260906190227 | 27 | 213 | 14.5 | 29.0 | 0.00 | 0.00 | 0.00 | 23 | 1014.4 |
| 20260906185721 | 27 | 225 | 6.4 | 29.0 | 0.00 | 0.00 | 0.00 | 22 | 1014.4 |
| 20260906185215 | 27 | 204 | 9.7 | 25.7 | 0.00 | 0.00 | 0.00 | 31 | 1014.5 |
| 20260906184709 | 26 | 208 | 14.5 | 25.7 | 0.00 | 0.00 | 0.00 | 34 | 1014.5 |
| 20260906184203 | 26 | 224 | 9.7 | 25.7 | 0.00 | 0.00 | 0.00 | 100 | 1014.6 |
| 20260906183657 | 26 | 211 | 14.5 | 25.7 | 0.00 | 0.00 | 0.00 | 98 | 1014.7 |
| 20260906183151 | 26 | 218 | 9.7 | 19.3 | 0.00 | 0.00 | 0.00 | 100 | 1014.8 |
| 20260906182645 | 26 | 206 | 12.9 | 20.9 | 0.00 | 0.00 | 0.00 | 93 | 1014.8 |
| 20260906182139 | 26 | 202 | 16.1 | 25.7 | 0.00 | 0.00 | 0.00 | 82 | 1014.8 |
| 20260906181633 | 26 | 207 | 9.7 | 25.7 | 0.00 | 0.00 | 0.00 | 82 | 1014.9 |
| 20260906181127 | 26 | 218 | 9.7 | 24.1 | 0.00 | 0.00 | 0.00 | 100 | 1015.0 |
| 20260906180621 | 26 | 205 | 12.9 | 24.1 | 0.00 | 0.00 | 0.00 | 80 | 1015.1 |
| 20260906180115 | 26 | 224 | 8.0 | 32.2 | 0.00 | 0.00 | 0.00 | 95 | 1015.2 |
| 20260906175609 | 26 | 210 | 14.5 | 22.5 | 0.00 | 0.00 | 0.00 | 98 | 1015.3 |
| 20260906175103 | 26 | 212 | 11.3 | 22.5 | 0.00 | 0.00 | 0.00 | 100 | 1015.3 |
| 20260906174557 | 26 | 231 | 9.7 | 25.7 | 0.00 | 0.00 | 0.00 | 79 | 1015.6 |
| 20260906174051 | 26 | 215 | 12.9 | 25.7 | 0.00 | 0.00 | 0.00 | 66 | 1015.6 |
| 20260906173545 | 26 | 207 | 14.5 | 22.5 | 0.00 | 0.00 | 0.00 | 94 | 1015.6 |
| 20260906173039 | 26 | 211 | 12.9 | 25.7 | 0.00 | 0.00 | 0.00 | 68 | 1015.7 |
| 20260906172533 | 25 | 220 | 11.3 | 30.6 | 0.00 | 0.00 | 0.00 | 60 | 1015.8 |
| 20260906172027 | 25 | 211 | 14.5 | 30.6 | 0.00 | 0.00 | 0.00 | 99 | 1015.7 |
| 20260906171521 | 25 | 209 | 17.7 | 33.8 | 0.00 | 0.00 | 0.00 | 48 | 1015.8 |
| 20260906171015 | 25 | 213 | 17.7 | 33.8 | 0.00 | 0.00 | 0.00 | 74 | 1015.8 |
| 20260906170509 | 25 | 215 | 16.1 | 29.0 | 0.00 | 0.00 | 0.00 | 82 | 1015.8 |
| 20260906170003 | 25 | 203 | 14.5 | 29.0 | 0.00 | 0.00 | 0.00 | 87 | 1015.9 |
| 20260906165457 | 25 | 201 | 17.7 | 30.6 | 0.00 | 0.00 | 0.00 | 67 | 1015.9 |
| 20260906164951 | 25 | 200 | 17.7 | 30.6 | 0.00 | 0.00 | 0.00 | 56 | 1015.9 |
| 20260906164445 | 25 | 199 | 14.5 | 25.7 | 0.00 | 0.00 | 0.00 | 23 | 1015.8 |
| 20260906163939 | 25 | 211 | 11.3 | 25.7 | 0.00 | 0.00 | 0.00 | 22 | 1015.9 |
| 20260906163433 | 25 | 213 | 9.7 | 24.1 | 0.00 | 0.00 | 0.00 | 24 | 1016.0 |
| 20260906162927 | 25 | 213 | 12.9 | 25.7 | 0.00 | 0.00 | 0.00 | 24 | 1016.0 |
| 20260906162421 | 25 | 216 | 14.5 | 25.7 | 0.00 | 0.00 | 0.00 | 24 | 1016.0 |
| 20260906161915 | 25 | 216 | 9.7 | 24.1 | 0.00 | 0.00 | 0.00 | 26 | 1016.1 |
| 20260906161409 | 24 | 228 | 9.7 | 20.9 | 0.00 | 0.00 | 0.00 | 27 | 1016.0 |
| 20260906160903 | 24 | 208 | 12.9 | 20.9 | 0.00 | 0.00 | 0.00 | 25 | 1016.1 |
| 20260906160357 | 25 | 192 | 9.7 | 16.1 | 0.00 | 0.00 | 0.00 | 26 | 1016.1 |
| 20260906155851 | 23 | 167 | 6.4 | 0.0 | 0.00 | 0.00 | 0.00 | 32 | 1016.2 |
| 20260906155345 | 24 | 100 | 1.6 | 0.0 | 0.00 | 0.00 | 0.00 | 26 | 1016.1 |
| 20260906154839 | 23 | 123 | 1.6 | 0.0 | 0.00 | 0.00 | 0.00 | 33 | 1016.3 |
| 20260906154333 | 23 | 80 | 3.2 | 0.0 | 0.00 | 0.00 | 0.00 | 26 | 1016.2 |
| 20260906153827 | 23 | 92 | 4.8 | 0.0 | 0.00 | 0.00 | 0.00 | 27 | 1016.3 |
| 20260906153321 | 22 | 146 | 0.0 | 0.0 | 0.00 | 0.00 | 0.00 | 28 | 1016.5 |
| 20260906152815 | 22 | 174 | 0.0 | 0.0 | 0.00 | 0.00 | 0.00 | 27 | 1016.5 |
| 20260906152309 | 22 | 145 | 3.2 | 0.0 | 0.00 | 0.00 | 0.00 | 100 | 1016.6 |
| 20260906151803 | 21 | 156 | 1.6 | 0.0 | 0.00 | 0.00 | 0.00 | 100 | 1016.6 |
| 20260906151257 | 21 | 185 | 3.2 | 0.0 | 0.00 | 0.00 | 0.00 | 43 | 1016.6 |
| 20260906150751 | 20 | 182 | 3.2 | 0.0 | 0.00 | 0.00 | 0.00 | 34 | 1016.6 |
| 20260906150245 | 20 | 182 | 4.8 | 0.0 | 0.00 | 0.00 | 0.00 | 36 | 1016.7 |
| 20260906145739 | 20 | 195 | 9.7 | 0.0 | 0.00 | 0.00 | 0.00 | 33 | 1016.7 |
| 20260906145233 | 20 | 178 | 8.0 | 0.0 | 0.00 | 0.00 | 0.00 | 30 | 1016.6 |
| 20260906144727 | 19 | 179 | 6.4 | 0.0 | 0.00 | 0.00 | 0.00 | 33 | 1016.7 |
| 20260906144221 | 18 | 198 | 3.2 | 0.0 | 0.00 | 0.00 | 0.00 | 35 | 1016.7 |
| 20260906143715 | 18 | 213 | 4.8 | 0.0 | 0.00 | 0.00 | 0.00 | 31 | 1016.8 |
| 20260906143209 | 18 | 275 | 3.2 | 0.0 | 0.00 | 0.00 | 0.00 | 35 | 1016.8 |
| 20260906142703 | 17 | 278 | 1.6 | 0.0 | 0.00 | 0.00 | 0.00 | 37 | 1016.8 |
| 20260906142157 | 17 | 317 | 1.6 | 0.0 | 0.00 | 0.00 | 0.00 | 38 | 1016.8 |
| 20260906141651 | 18 | 226 | 0.0 | 0.0 | 0.00 | 0.00 | 0.00 | 30 | 1016.8 |
| 20260906141145 | 17 | 144 | 1.6 | 0.0 | 0.00 | 0.00 | 0.00 | 100 | 1016.9 |
| 20260906140639 | 17 | 170 | 0.0 | 0.0 | 0.00 | 0.00 | 0.00 | 100 | 1017.0 |
| 20260906140133 | 17 | 170 | 3.2 | 0.0 | 0.00 | 0.00 | 0.00 | 36 | 1017.0 |
| 20260906135627 | 16 | 170 | 4.8 | 0.0 | 0.00 | 0.00 | 0.00 | 34 | 1017.0 |
| 20260906135121 | 17 | 145 | 4.8 | 0.0 | 0.00 | 0.00 | 0.00 | 100 | 1017.0 |
| 20260906134615 | 16 | 171 | 8.0 | 0.0 | 0.00 | 0.00 | 0.00 | 31 | 1017.0 |
| 20260906134109 | 16 | 174 | 4.8 | 0.0 | 0.00 | 0.00 | 0.00 | 34 | 1017.0 |
| 20260906133603 | 15 | 194 | 6.4 | 0.0 | 0.00 | 0.00 | 0.00 | 35 | 1017.0 |
| 20260906133057 | 16 | 227 | 1.6 | 0.0 | 0.00 | 0.00 | 0.00 | 33 | 1017.0 |
| 20260906132551 | 16 | 173 | 3.2 | 0.0 | 0.00 | 0.00 | 0.00 | 32 | 1017.0 |
| 20260906132045 | 16 | 153 | 6.4 | 0.0 | 0.00 | 0.00 | 0.00 | 30 | 1016.9 |
| 20260906131539 | 16 | 150 | 6.4 | 0.0 | 0.00 | 0.00 | 0.00 | 31 | 1016.8 |
| 20260906131033 | 16 | 164 | 6.4 | 0.0 | 0.00 | 0.00 | 0.00 | 30 | 1016.7 |
| 20260906130527 | 16 | 160 | 6.4 | 0.0 | 0.00 | 0.00 | 0.00 | 30 | 1016.7 |
| 20260906130021 | 16 | 163 | 8.0 | 0.0 | 0.00 | 0.00 | 0.00 | 30 | 1016.7 |
| 20260906125515 | 16 | 155 | 4.8 | 0.0 | 0.00 | 0.00 | 0.00 | 30 | 1016.8 |
| 20260906125009 | 16 | 166 | 9.7 | 0.0 | 0.00 | 0.00 | 0.00 | 31 | 1016.8 |
| 20260906124503 | 16 | 162 | 4.8 | 0.0 | 0.00 | 0.00 | 0.00 | 30 | 1016.8 |
| 20260906123957 | 16 | 166 | 8.0 | 0.0 | 0.00 | 0.00 | 0.00 | 30 | 1016.7 |
| 20260906123451 | 16 | 159 | 6.4 | 0.0 | 0.00 | 0.00 | 0.00 | 29 | 1016.7 |
| 20260906122945 | 16 | 150 | 6.4 | 0.0 | 0.00 | 0.00 | 0.00 | 30 | 1016.7 |
| 20260906122439 | 16 | 167 | 9.7 | 0.0 | 0.00 | 0.00 | 0.00 | 29 | 1016.6 |
| 20260906121933 | 17 | 154 | 8.0 | 0.0 | 0.00 | 0.00 | 0.00 | 27 | 1016.6 |
| 20260906121427 | 17 | 153 | 6.4 | 0.0 | 0.00 | 0.00 | 0.00 | 27 | 1016.6 |
| 20260906120922 | 17 | 155 | 6.4 | 0.0 | 0.00 | 0.00 | 0.00 | 28 | 1016.6 |
| 20260906120415 | 17 | 166 | 8.0 | 0.0 | 0.00 | 0.00 | 0.00 | 28 | 1016.6 |
| 20260906115909 | 17 | 154 | 8.0 | 0.0 | 0.00 | 0.00 | 0.00 | 27 | 1016.6 |
| 20260906115403 | 17 | 147 | 8.0 | 0.0 | 0.00 | 0.00 | 0.00 | 26 | 1016.6 |
| 20260906114857 | 17 | 153 | 6.4 | 0.0 | 0.00 | 0.00 | 0.00 | 26 | 1016.6 |
| 20260906114351 | 17 | 145 | 9.7 | 0.0 | 0.00 | 0.00 | 0.00 | 25 | 1016.6 |
| 20260906113845 | 17 | 146 | 8.0 | 20.9 | 0.00 | 0.00 | 0.00 | 26 | 1016.6 |
| 20260906113339 | 17 | 147 | 11.3 | 20.9 | 0.00 | 0.00 | 0.00 | 26 | 1016.6 |
| 20260906112833 | 17 | 151 | 8.0 | 0.0 | 0.00 | 0.00 | 0.00 | 27 | 1016.7 |
| 20260906112327 | 17 | 168 | 8.0 | 0.0 | 0.00 | 0.00 | 0.00 | 28 | 1016.7 |
| 20260906111821 | 16 | 167 | 8.0 | 0.0 | 0.00 | 0.00 | 0.00 | 29 | 1016.7 |
| 20260906111315 | 16 | 173 | 6.4 | 0.0 | 0.00 | 0.00 | 0.00 | 31 | 1016.7 |
| 20260906110809 | 16 | 195 | 9.7 | 0.0 | 0.00 | 0.00 | 0.00 | 29 | 1016.7 |
| 20260906110303 | 16 | 198 | 9.7 | 0.0 | 0.00 | 0.00 | 0.00 | 30 | 1016.7 |
| 20260906105757 | 16 | 201 | 6.4 | 0.0 | 0.00 | 0.00 | 0.00 | 32 | 1016.7 |
| 20260906105251 | 16 | 205 | 9.7 | 0.0 | 0.00 | 0.00 | 0.00 | 32 | 1016.6 |
| 20260906104745 | 16 | 212 | 6.4 | 0.0 | 0.00 | 0.00 | 0.00 | 30 | 1016.6 |
| 20260906104239 | 17 | 193 | 4.8 | 0.0 | 0.00 | 0.00 | 0.00 | 28 | 1016.5 |
| 20260906103733 | 18 | 153 | 6.4 | 0.0 | 0.00 | 0.00 | 0.00 | 25 | 1016.5 |
| 20260906103227 | 18 | 145 | 6.4 | 0.0 | 0.00 | 0.00 | 0.00 | 24 | 1016.5 |
| 20260906102721 | 18 | 142 | 6.4 | 0.0 | 0.00 | 0.00 | 0.00 | 26 | 1016.5 |
| 20260906102215 | 18 | 141 | 6.4 | 0.0 | 0.00 | 0.00 | 0.00 | 25 | 1016.4 |
| 20260906101709 | 18 | 142 | 4.8 | 0.0 | 0.00 | 0.00 | 0.00 | 25 | 1016.4 |
| 20260906101203 | 18 | 137 | 6.4 | 0.0 | 0.00 | 0.00 | 0.00 | 24 | 1016.4 |
| 20260906100657 | 18 | 134 | 6.4 | 0.0 | 0.00 | 0.00 | 0.00 | 25 | 1016.3 |
| 20260906100151 | 18 | 141 | 4.8 | 0.0 | 0.00 | 0.00 | 0.00 | 25 | 1016.3 |
| 20260906095645 | 18 | 147 | 8.0 | 0.0 | 0.00 | 0.00 | 0.00 | 24 | 1016.3 |
| 20260906095139 | 18 | 152 | 6.4 | 0.0 | 0.00 | 0.00 | 0.00 | 24 | 1016.2 |
| 20260906094633 | 18 | 140 | 9.7 | 19.3 | 0.00 | 0.00 | 0.00 | 26 | 1016.2 |
| 20260906094127 | 18 | 150 | 8.0 | 19.3 | 0.00 | 0.00 | 0.00 | 25 | 1016.1 |
| 20260906093621 | 17 | 159 | 4.8 | 0.0 | 0.00 | 0.00 | 0.00 | 27 | 1016.1 |
| 20260906093115 | 17 | 168 | 6.4 | 0.0 | 0.00 | 0.00 | 0.00 | 26 | 1016.0 |
| 20260906092609 | 17 | 175 | 8.0 | 0.0 | 0.00 | 0.00 | 0.00 | 26 | 1016.0 |
| 20260906092103 | 18 | 158 | 6.4 | 17.7 | 0.00 | 0.00 | 0.00 | 25 | 1015.9 |
| 20260906091557 | 18 | 152 | 8.0 | 17.7 | 0.00 | 0.00 | 0.00 | 24 | 1016.0 |
| 20260906091051 | 18 | 152 | 8.0 | 0.0 | 0.00 | 0.00 | 0.00 | 25 | 1015.9 |
| 20260906090545 | 17 | 158 | 6.4 | 20.9 | 0.00 | 0.00 | 0.00 | 26 | 1015.9 |
| 20260906090039 | 18 | 156 | 8.0 | 20.9 | 0.00 | 0.00 | 0.00 | 25 | 1015.8 |
| 20260906085533 | 18 | 153 | 6.4 | 22.5 | 0.00 | 0.00 | 0.00 | 25 | 1015.8 |
| 20260906085027 | 18 | 154 | 4.8 | 22.5 | 0.00 | 0.00 | 0.00 | 25 | 1015.7 |
| 20260906084521 | 18 | 149 | 11.3 | 0.0 | 0.00 | 0.00 | 0.00 | 24 | 1015.7 |
| 20260906084015 | 18 | 155 | 6.4 | 0.0 | 0.00 | 0.00 | 0.00 | 26 | 1015.7 |
| 20260906083509 | 18 | 155 | 8.0 | 20.9 | 0.00 | 0.00 | 0.00 | 26 | 1015.7 |
| 20260906083003 | 18 | 148 | 9.7 | 20.9 | 0.00 | 0.00 | 0.00 | 24 | 1015.7 |
| 20260906082457 | 18 | 154 | 9.7 | 17.7 | 0.00 | 0.00 | 0.00 | 25 | 1015.7 |
| 20260906081951 | 18 | 156 | 8.0 | 20.9 | 0.00 | 0.00 | 0.00 | 24 | 1015.7 |
| 20260906081445 | 19 | 144 | 9.7 | 20.9 | 0.00 | 0.00 | 0.00 | 22 | 1015.7 |
| 20260906080939 | 20 | 143 | 11.3 | 0.0 | 0.00 | 0.00 | 0.00 | 22 | 1015.7 |
| 20260906080433 | 20 | 142 | 9.7 | 0.0 | 0.00 | 0.00 | 0.00 | 22 | 1015.7 |
| 20260906075927 | 20 | 148 | 9.7 | 0.0 | 0.00 | 0.00 | 0.00 | 22 | 1015.7 |
| 20260906075421 | 19 | 144 | 8.0 | 0.0 | 0.00 | 0.00 | 0.00 | 23 | 1015.8 |
| 20260906074915 | 19 | 151 | 8.0 | 0.0 | 0.00 | 0.00 | 0.00 | 23 | 1015.8 |
| 20260906074409 | 20 | 143 | 9.7 | 0.0 | 0.00 | 0.00 | 0.00 | 21 | 1015.8 |
| 20260906073903 | 19 | 146 | 8.0 | 20.9 | 0.00 | 0.00 | 0.00 | 23 | 1015.7 |
| 20260906073357 | 20 | 145 | 9.7 | 20.9 | 0.00 | 0.00 | 0.00 | 21 | 1015.7 |
| 20260906072851 | 20 | 143 | 9.7 | 19.3 | 0.00 | 0.00 | 0.00 | 22 | 1015.8 |
| 20260906072345 | 19 | 163 | 6.4 | 20.9 | 0.00 | 0.00 | 0.00 | 24 | 1015.7 |
| 20260906071839 | 20 | 140 | 12.9 | 20.9 | 0.00 | 0.00 | 0.00 | 21 | 1015.7 |
| 20260906071333 | 19 | 148 | 9.7 | 0.0 | 0.00 | 0.00 | 0.00 | 24 | 1015.7 |
| 20260906070827 | 19 | 152 | 4.8 | 19.3 | 0.00 | 0.00 | 0.00 | 25 | 1015.7 |
| 20260906070321 | 20 | 146 | 11.3 | 19.3 | 0.00 | 0.00 | 0.00 | 22 | 1015.7 |
| 20260906065815 | 20 | 157 | 8.0 | 20.9 | 0.00 | 0.00 | 0.00 | 22 | 1015.8 |
| 20260906065309 | 20 | 148 | 9.7 | 20.9 | 0.00 | 0.00 | 0.00 | 22 | 1015.7 |
| 20260906064803 | 20 | 149 | 8.0 | 19.3 | 0.00 | 0.00 | 0.00 | 23 | 1015.7 |
| 20260906064257 | 19 | 170 | 8.0 | 0.0 | 0.00 | 0.00 | 0.00 | 24 | 1015.7 |
| 20260906063751 | 18 | 158 | 4.8 | 0.0 | 0.00 | 0.00 | 0.00 | 26 | 1015.7 |
| 20260906063245 | 18 | 177 | 6.4 | 0.0 | 0.00 | 0.00 | 0.00 | 28 | 1015.7 |
| 20260906062739 | 18 | 181 | 6.4 | 0.0 | 0.00 | 0.00 | 0.00 | 29 | 1015.8 |
| 20260906062233 | 18 | 170 | 9.7 | 0.0 | 0.00 | 0.00 | 0.00 | 100 | 1015.7 |
| 20260906061727 | 18 | 170 | 9.7 | 0.0 | 0.00 | 0.00 | 0.00 | 78 | |
| 20260906061221 | 18 | 172 | 11.3 | 0.0 | 0.00 | 0.00 | 0.00 | 85 | 1015.8 |
| 20260906060715 | 18 | 173 | 9.7 | 20.9 | 0.00 | 0.00 | 0.00 | 75 | 1015.8 |
| 20260906060209 | 18 | 182 | 11.3 | 0.0 | 0.00 | 0.00 | 0.00 | 100 | 1015.9 |
| 20260906055703 | 17 | 189 | 12.9 | 0.0 | 0.00 | 0.00 | 0.00 | 100 | 1015.9 |
| 20260906055157 | 16 | 174 | 6.4 | 0.0 | 0.00 | 0.00 | 0.00 | 95 | 1015.9 |
| 20260906054651 | 17 | 175 | 8.0 | 0.0 | 0.00 | 0.00 | 0.00 | 100 | 1015.9 |
| 20260906054145 | 17 | 186 | 9.7 | 0.0 | 0.00 | 0.00 | 0.00 | 100 | 1015.9 |
| 20260906053639 | 17 | 188 | 4.8 | 0.0 | 0.00 | 0.00 | 0.00 | 100 | 1015.9 |
| 20260906053133 | 17 | 173 | 3.2 | 0.0 | 0.00 | 0.00 | 0.00 | 69 | 1015.8 |
| 20260906052627 | 18 | 182 | 3.2 | 0.0 | 0.00 | 0.00 | 0.00 | 85 | 1015.8 |
| 20260906052121 | 18 | 217 | 6.4 | 0.0 | 0.00 | 0.00 | 0.00 | 100 | 1015.8 |
| 20260906051615 | 18 | 204 | 4.8 | 0.0 | 0.00 | 0.00 | 0.00 | 100 | 1015.7 |
| 20260906051109 | 18 | 230 | 3.2 | 0.0 | 0.00 | 0.00 | 0.00 | 100 | 1015.7 |
| 20260906050603 | 17 | 233 | 4.8 | 0.0 | 0.00 | 0.00 | 0.00 | 100 | 1015.8 |
| 20260906050057 | 18 | 197 | 3.2 | 0.0 | 0.00 | 0.00 | 0.00 | 100 | 1015.6 |
| 20260906045551 | 18 | 215 | 8.0 | 0.0 | 0.00 | 0.00 | 0.00 | 95 | 1015.7 |
| 20260906045045 | 18 | 178 | 6.4 | 0.0 | 0.00 | 0.00 | 0.00 | 100 | 1015.6 |
| 20260906044539 | 19 | 170 | 8.0 | 0.0 | 0.00 | 0.00 | 0.00 | 60 | 1015.6 |
| 20260906044033 | 18 | 173 | 6.4 | 0.0 | 0.00 | 0.00 | 0.00 | 32 | 1015.6 |
| 20260906043527 | 18 | 181 | 6.4 | 0.0 | 0.00 | 0.00 | 0.00 | 30 | 1015.6 |
| 20260906043021 | 19 | 166 | 6.4 | 0.0 | 0.00 | 0.00 | 0.00 | 27 | 1015.5 |
| 20260906042515 | 18 | 177 | 9.7 | 0.0 | 0.00 | 0.00 | 0.00 | 28 | 1015.5 |
| 20260906042009 | 20 | 171 | 11.3 | 22.5 | 0.00 | 0.00 | 0.00 | 24 | 1015.5 |
| 20260906041503 | 21 | 168 | 11.3 | 22.5 | 0.00 | 0.00 | 0.00 | 22 | 1015.5 |
| 20260906040957 | 20 | 167 | 9.7 | 0.0 | 0.00 | 0.00 | 0.00 | 23 | 1015.4 |
| 20260906040451 | 20 | 167 | 9.7 | 0.0 | 0.00 | 0.00 | 0.00 | 24 | 1015.5 |
| 20260906035945 | 21 | 170 | 11.3 | 19.3 | 0.00 | 0.00 | 0.00 | 22 | 1015.4 |
| 20260906035439 | 21 | 161 | 9.7 | 19.3 | 0.00 | 0.00 | 0.00 | 23 | 1015.5 |
| 20260906034933 | 19 | 174 | 6.4 | 0.0 | 0.00 | 0.00 | 0.00 | 29 | 1015.4 |
| 20260906034427 | 20 | 169 | 9.7 | 0.0 | 0.00 | 0.00 | 0.00 | 28 | 1015.4 |
| 20260906033921 | 20 | 169 | 9.7 | 20.9 | 0.00 | 0.00 | 0.00 | 28 | 1015.4 |
| 20260906033415 | 20 | 167 | 8.0 | 0.0 | 0.00 | 0.00 | 0.00 | 27 | 1015.3 |
| 20260906032909 | 18 | 163 | 4.8 | 0.0 | 0.00 | 0.00 | 0.00 | 33 | 1015.3 |
| 20260906032403 | 18 | 170 | 6.4 | 0.0 | 0.00 | 0.00 | 0.00 | 35 | 1015.3 |
| 20260906031857 | 18 | 180 | 8.0 | 0.0 | 0.00 | 0.00 | 0.00 | 36 | 1015.3 |
| 20260906031351 | 18 | 195 | 8.0 | 0.0 | 0.00 | 0.00 | 0.00 | 35 | 1015.3 |
| 20260906030845 | 17 | 191 | 8.0 | 0.0 | 0.00 | 0.00 | 0.00 | 42 | 1015.3 |
| 20260906030339 | 18 | 197 | 6.4 | 0.0 | 0.00 | 0.00 | 0.00 | 39 | 1015.2 |
| 20260906025833 | 18 | 198 | 6.4 | 0.0 | 0.00 | 0.00 | 0.00 | 100 | 1015.2 |
| 20260906025327 | 18 | 200 | 4.8 | 0.0 | 0.00 | 0.00 | 0.00 | 100 | 1015.1 |
| 20260906024821 | 18 | 194 | 0.0 | 0.0 | 0.00 | 0.00 | 0.00 | 30 | 1015.1 |
| 20260906024315 | 18 | 199 | 6.4 | 0.0 | 0.00 | 0.00 | 0.00 | 42 | 1014.9 |
| 20260906023809 | 18 | 173 | 0.0 | 0.0 | 0.00 | 0.00 | 0.00 | 43 | 1014.8 |
| 20260906023303 | 18 | 216 | 4.8 | 0.0 | 0.00 | 0.00 | 0.00 | 43 | 1014.7 |
| 20260906022757 | 20 | 178 | 3.2 | 0.0 | 0.00 | 0.00 | 0.00 | 41 | 1014.6 |
| 20260906022251 | 20 | 104 | 0.0 | 0.0 | 0.00 | 0.00 | 0.00 | 39 | 1014.5 |
| 20260906021745 | 20 | 174 | 0.0 | 0.0 | 0.00 | 0.00 | 0.00 | 41 | 1014.5 |
| 20260906021239 | 20 | 230 | 3.2 | 0.0 | 0.00 | 0.00 | 0.00 | 37 | 1014.5 |
| 20260906020733 | 22 | 178 | 1.6 | 0.0 | 0.00 | 0.00 | 0.00 | 31 | 1014.5 |
| 20260906020227 | 24 | 85 | 1.6 | 0.0 | 0.00 | 0.00 | 0.00 | 23 | 1014.4 |
| 20260906015721 | 25 | 62 | 1.6 | 0.0 | 0.00 | 0.00 | 0.00 | 22 | 1014.4 |
| 20260906015215 | 24 | 127 | 0.0 | 0.0 | 0.00 | 0.00 | 0.00 | 22 | 1014.4 |
| 20260906014709 | 25 | 71 | 1.6 | 0.0 | 0.00 | 0.00 | 0.00 | 22 | 1014.4 |
| 20260906014203 | 26 | 63 | 1.6 | 0.0 | 0.00 | 0.00 | 0.00 | 22 | 1014.4 |
| 20260906013657 | 26 | 77 | 0.0 | 0.0 | 0.00 | 0.00 | 0.00 | 20 | 1014.5 |
| 20260906013151 | 26 | 50 | 1.6 | 0.0 | 0.00 | 0.00 | 0.00 | 18 | 1014.5 |
| 20260906012645 | 27 | 66 | 1.6 | 0.0 | 0.00 | 0.00 | 0.00 | 16 | 1014.5 |
| 20260906012139 | 27 | 76 | 0.0 | 0.0 | 0.00 | 0.00 | 0.00 | 16 | 1014.5 |
| 20260906011633 | 27 | 154 | 0.0 | 0.0 | 0.00 | 0.00 | 0.00 | 17 | 1014.4 |
| 20260906011127 | 27 | 157 | 0.0 | 0.0 | 0.00 | 0.00 | 0.00 | 18 | 1014.5 |
| 20260906010621 | 27 | 150 | 0.0 | 0.0 | 0.00 | 0.00 | 0.00 | 17 | 1014.5 |
| 20260906010115 | 28 | 190 | 0.0 | 0.0 | 0.00 | 0.00 | 0.00 | 18 | 1014.5 |
| 20260906005609 | 28 | 206 | 1.6 | 0.0 | 0.00 | 0.00 | 0.00 | 16 | 1014.4 |
| 20260906005103 | 28 | 199 | 0.0 | 0.0 | 0.00 | 0.00 | 0.00 | 16 | 1014.4 |
| 20260906004557 | 28 | 214 | 1.6 | 0.0 | 0.00 | 0.00 | 0.00 | 18 | 1014.3 |
| 20260906004051 | 27 | 204 | 4.8 | 0.0 | 0.00 | 0.00 | 0.00 | 17 | 1014.3 |
| 20260906003545 | 28 | 218 | 1.6 | 0.0 | 0.00 | 0.00 | 0.00 | 16 | 1014.2 |
| 20260906003039 | 28 | 217 | 4.8 | 0.0 | 0.00 | 0.00 | 0.00 | 17 | 1014.1 |
| 20260906002533 | 28 | 214 | 4.8 | 0.0 | 0.00 | 0.00 | 0.00 | 17 | 1014.1 |
| 20260906002027 | 28 | 219 | 3.2 | 0.0 | 0.00 | 0.00 | 0.00 | 16 | 1014.1 |
| 20260906001521 | 28 | 223 | 3.2 | 0.0 | 0.00 | 0.00 | 0.00 | 17 | 1014.0 |
| 20260906001015 | 28 | 219 | 3.2 | 0.0 | 0.00 | 0.00 | 0.00 | 15 | 1013.9 |
| 20260906000509 | 28 | 221 | 6.4 | 0.0 | 0.00 | 0.00 | 0.00 | 16 | 1014.0 |
| 20260906000003 | 28 | 224 | 3.2 | 0.0 | 0.00 | 0.00 | 0.00 | 16 | 1014.0 |
| 20260905235457 | 28 | 210 | 3.2 | 0.0 | 0.00 | 0.00 | 0.00 | 17 | 1014.0 |
| 20260905234951 | 28 | 226 | 3.2 | 0.0 | 0.00 | 0.00 | 0.00 | 16 | 1014.0 |